Location: Unspecified
(0.0000°N, 0.0000°E)
Time: 11:13:37
(UTC+00:00)

Vanguard 2 - Visible Passes

Search period start: 11 December 2017 00:00
Search period end: 21 December 2017 00:00
Orbit: 553 x 2939 km, 32.9° (Epoch: 10 December)

Date Brightness Start Highest point End Pass type
(mag) Time Alt. Az. Time Alt. Az. Time Alt. Az.
11 Dec 10.9 01:05:07 24° SE 01:05:07 24° SE 01:09:44 10° SE visible
11 Dec 10.5 03:06:31 24° SW 03:09:52 27° SSW 03:21:51 10° SSE visible
11 Dec 11.5 05:17:37 10° SW 05:26:01 16° S 05:35:26 10° SSE visible
12 Dec 10.7 01:21:57 27° SSE 01:21:57 27° SSE 01:27:50 10° SE visible
12 Dec 10.9 03:23:22 15° SW 03:29:10 21° SSW 03:39:42 10° SSE visible
13 Dec 10.6 01:38:47 28° SSE 01:38:47 28° SSE 01:45:44 10° SE visible
13 Dec 11.1 03:41:28 10° SW 03:48:43 17° S 03:57:42 10° SSE visible
14 Dec 10.6 01:55:34 24° S 01:55:34 24° S 02:03:28 10° SSE visible
14 Dec 11.4 04:02:04 10° SW 04:08:29 15° S 04:16:02 10° SSE visible
15 Dec 10.8 02:12:22 19° SSW 02:12:49 19° SSW 02:21:04 10° SSE visible
15 Dec 11.6 04:22:32 10° SSW 04:28:27 13° S 04:35:08 10° SSE visible
16 Dec 11.3 00:27:45 11° SE 00:27:45 11° SE 00:28:04 10° SE visible
16 Dec 11.0 02:29:09 13° SSW 02:32:09 15° S 02:38:33 10° SSE visible
16 Dec 11.7 04:42:16 10° SSW 04:48:29 13° S 04:55:26 10° SSE visible
17 Dec 11.2 00:44:32 12° SSE 00:44:32 12° SSE 00:45:39 10° SSE visible
17 Dec 11.2 02:47:58 10° SSW 02:51:41 12° S 02:55:58 10° SSE visible
17 Dec 11.8 05:01:05 10° SSW 05:08:30 15° SSE 05:16:46 10° SE visible
18 Dec 11.1 01:01:18 13° SSE 01:01:18 13° SSE 01:02:55 10° SSE visible
18 Dec 11.4 03:09:37 10° S 03:11:25 10° S 03:13:19 10° S visible
18 Dec 11.8 05:19:15 10° SSW 05:28:20 17° SSE 05:38:29 10° SE visible
19 Dec 11.2 01:18:05 11° S 01:18:05 11° S 01:19:33 10° S visible
19 Dec 11.5 03:30:37 10° S 03:31:16 10° S 03:31:56 10° S visible
20 Dec 11.6 03:47:57 10° S 03:51:08 11° SSE 03:54:35 10° SSE visible
